User: anonymous   Login
Location: Newark
(34.3481°N, 134.0494°E)
Time: 21:14:36
(UTC+00:00)
Language:

SR - Orbit

View from above orbital plane
View from above orbital plane
View from above satellite
View from above satellite

Ground track
Ground track

The orbit data is extracted from the following two-line orbital elements,

1    46U 60007B   20019.16118783 -.00000035  00000-0  16298-4 0  9999
2    46  66.6908  92.6047 0216847 244.1196 113.7414 14.49269647117327
Epoch (UTC): 19 January 2020 03:52:06
Eccentricity: 0.0216847
inclination: 66.6908°
perigee height: 574 km
apogee height: 882 km
right ascension of ascending node: 92.6047°
argument of perigee: 244.1196°
revolutions per day: 14.49269647
mean anomaly at epoch: 113.7414°
orbit number at epoch: 11732

The dashed part of the orbit path shows where the satellite is in the earth's shadow,  

DLR